Ephrata, WA
on Tuesday, February 12, 2013

Tuesday
Previous Day Next Day
Daily Summary
 ActualAverageRecord
Temperature
Mean Temperature °F 33°F  
Max Temperature 46°F 41°F 64°F (1977)
Min Temperature 28°F 25°F 6°F (1959)
Degree Days
Heating Degree Days 28 32  
Month to date heating degree days 371 392  
Since 1 July heating degree days 3807 4100  
Cooling Degree Days 0 0  
Month to date cooling degree days 0 0  
Year to date cooling degree days 0 0  
Moisture
Dew Point 30°F   
Average Humidity 79    
Maximum Humidity 92    
Minimum Humidity 65    
Precipitation
Precipitation 0.00 in 0.03 in 0.48 in (1958)
Month to date precipitation T 0.31  
Year to date precipitation 0.19 1.22  
Wind
Wind Speed 4 mph   
Max Wind Speed 28 mph   
Max Gust Speed 30 mph   
Visibility 8 miles   
Events     

Key: T is trace of precipitation, MM is missing value
Source: NWS Daily Summary
Time(PST)TemperatureDew PointHumidity Pressure Visibility Wind DirectionWind SpeedGust SpeedPrecipitationEvents Conditions
12:53 AM 30.0°F 26.1°F 85% 30.27 in 10.0 miles North 4.6 mph - N/A   Clear
1:53 AM 28.9°F 26.1°F 89% 30.28 in 10.0 miles Calm Calm - N/A   Clear
2:53 AM 28.9°F 26.1°F 89% 30.28 in 9.0 miles North 3.5 mph - N/A   Mostly Cloudy
3:53 AM 30.0°F 27.0°F 88% 30.28 in 9.0 miles NNE 3.5 mph - N/A   Scattered Clouds
4:53 AM 28.9°F 27.0°F 92% 30.29 in 6.0 miles NNE 3.5 mph - N/A   Overcast
5:53 AM 30.0°F 27.0°F 88% 30.30 in 6.0 miles NNE 4.6 mph - N/A   Mostly Cloudy
6:53 AM 28.0°F 26.1°F 92% 30.30 in 5.0 miles North 3.5 mph - N/A   Partly Cloudy
7:53 AM 30.9°F 28.0°F 89% 30.32 in 5.0 miles North 4.6 mph - N/A   Overcast
8:53 AM 32.0°F 28.9°F 88% 30.33 in 5.0 miles North 5.8 mph - N/A   Partly Cloudy
9:53 AM 34.0°F 30.0°F 85% 30.33 in 7.0 miles Calm Calm - N/A   Partly Cloudy
10:53 AM 34.0°F 30.0°F 85% 30.32 in 7.0 miles NNE 3.5 mph - N/A   Clear
11:53 AM 36.0°F 30.9°F 82% 30.33 in 8.0 miles Calm Calm - N/A   Clear
12:53 PM 39.9°F 30.9°F 70% 30.30 in 10.0 miles Variable 4.6 mph - N/A   Scattered Clouds
1:53 PM 42.1°F 32.0°F 67% 30.29 in 10.0 miles Calm Calm - N/A   Partly Cloudy
2:53 PM 43.0°F 32.0°F 65% 30.28 in 10.0 miles South 3.5 mph - N/A   Partly Cloudy
3:31 PM 42.8°F 33.8°F 70% 30.23 in 10.0 miles SSE 3.5 mph 28.8 mph N/A   Clear
3:53 PM 42.1°F 33.1°F 70% 30.26 in 10.0 miles Calm Calm - N/A   Mostly Cloudy
4:53 PM 43.0°F 32.0°F 65% 30.24 in 10.0 miles Calm Calm - N/A   Partly Cloudy
5:53 PM 37.0°F 30.9°F 79% 30.23 in 10.0 miles NE 3.5 mph - N/A   Scattered Clouds
6:53 PM 34.0°F 28.9°F 82% 30.22 in 9.0 miles Calm Calm - N/A   Clear
7:53 PM 34.0°F 30.0°F 85% 30.22 in 8.0 miles Calm Calm - N/A   Mostly Cloudy
8:53 PM 30.0°F 28.0°F 92% 30.21 in 7.0 miles Calm Calm - N/A   Scattered Clouds
9:53 PM 36.0°F 32.0°F 86% 30.18 in 10.0 miles SW 6.9 mph - N/A   Mostly Cloudy
10:53 PM 45.0°F 34.0°F 65% 30.17 in 10.0 miles SW 13.8 mph - N/A   Overcast
11:53 PM 44.1°F 34.0°F 68% 30.17 in 10.0 miles SW 13.8 mph - N/A   Mostly Cloudy
Moon Phase
Feb. 12 Feb. 17 Feb. 25 Mar. 04 Mar. 11
Sunrise:07:07 AM (PST) Moon Rise:07:52 AM (PST)2/12
Sunset:05:17 PM (PST) Moon Set:08:41 PM (PST)2/12

Copyright © 2014 The Weather Underground, Inc.